TimeMST,TemperatureF,Dew PointF,Humidity,Sea Level PressureIn,VisibilityMPH,Wind Direction,Wind SpeedMPH,Gust SpeedMPH,PrecipitationIn,Events,Conditions,WindDirDegrees,DateUTC
12:53 AM,73.9,57.9,57,29.69,10.0,NW,5.8,-,N/A,,Overcast,310,2013-09-27 07:53:00
1:53 AM,73.0,59.0,61,29.70,10.0,WNW,9.2,-,N/A,,Mostly Cloudy,300,2013-09-27 08:53:00
2:53 AM,72.0,53.1,51,29.70,10.0,WNW,8.1,-,N/A,,Overcast,300,2013-09-27 09:53:00
3:53 AM,71.1,50.0,47,29.71,10.0,NW,8.1,-,N/A,,Mostly Cloudy,310,2013-09-27 10:53:00
4:53 AM,70.0,50.0,49,29.73,10.0,WNW,5.8,-,N/A,,Mostly Cloudy,300,2013-09-27 11:53:00
5:53 AM,69.1,50.0,51,29.75,10.0,WNW,6.9,-,N/A,,Scattered Clouds,290,2013-09-27 12:53:00
6:53 AM,68.0,50.0,52,29.78,10.0,Calm,Calm,-,N/A,,Scattered Clouds,0,2013-09-27 13:53:00
7:53 AM,70.0,52.0,53,29.80,10.0,West,5.8,-,N/A,,Overcast,280,2013-09-27 14:53:00
8:53 AM,71.1,51.1,49,29.82,10.0,NW,5.8,-,N/A,,Scattered Clouds,310,2013-09-27 15:53:00
9:53 AM,72.0,51.1,48,29.83,10.0,WNW,11.5,-,N/A,,Overcast,300,2013-09-27 16:53:00
10:53 AM,75.9,46.9,36,29.82,10.0,West,4.6,-,N/A,,Clear,280,2013-09-27 17:53:00
11:53 AM,75.9,45.0,33,29.82,10.0,West,9.2,-,N/A,,Mostly Cloudy,260,2013-09-27 18:53:00
12:53 PM,78.1,46.0,32,29.81,10.0,Variable,3.5,-,N/A,,Mostly Cloudy,0,2013-09-27 19:53:00
1:53 PM,78.1,48.0,35,29.80,10.0,WSW,11.5,-,N/A,,Partly Cloudy,250,2013-09-27 20:53:00
2:53 PM,79.0,46.0,31,29.79,10.0,NW,9.2,-,N/A,,Clear,310,2013-09-27 21:53:00
3:53 PM,79.0,43.0,28,29.79,10.0,West,10.4,-,N/A,,Clear,280,2013-09-27 22:53:00
4:53 PM,80.1,39.9,24,29.80,10.0,WNW,11.5,-,N/A,,Clear,300,2013-09-27 23:53:00
5:53 PM,77.0,28.9,17,29.82,10.0,NNW,13.8,19.6,N/A,,Clear,330,2013-09-28 00:53:00
6:53 PM,75.0,23.0,14,29.84,10.0,NNW,10.4,-,N/A,,Clear,340,2013-09-28 01:53:00
7:53 PM,73.0,21.0,14,29.86,10.0,NNW,10.4,-,N/A,,Clear,330,2013-09-28 02:53:00
8:53 PM,71.1,19.0,14,29.88,10.0,NNW,8.1,-,N/A,,Clear,330,2013-09-28 03:53:00
9:53 PM,70.0,19.0,14,29.89,10.0,NNW,6.9,-,N/A,,Clear,330,2013-09-28 04:53:00
10:53 PM,66.9,21.0,17,29.90,10.0,Calm,Calm,-,N/A,,Clear,0,2013-09-28 05:53:00
11:53 PM,64.0,21.0,19,29.92,10.0,SE,6.9,-,N/A,,Clear,130,2013-09-28 06:53:00